Tiempo cada hora Ademuz

Hoy, 31 Julio, Sábado

Tiempo Temperatura Precipitaciones Viento Presión Humedad
00:00 +21°C° 0 mm 1 mps 668 mmHg 27%
01:00 +20°C° 0 mm 1 mps 668 mmHg 32%
02:00 +20°C° 0 mm 1 mps 668 mmHg 36%
03:00 +19°C° 0 mm 1 mps 667 mmHg 40%
04:00 +19°C° 0 mm 1 mps 667 mmHg 44%
05:00 +19°C° 0 mm 1 mps 667 mmHg 47%
06:00 +19°C° 0 mm 1 mps 667 mmHg 50%
07:00 +20°C° 0 mm 3 mps 668 mmHg 41%
08:00 +23°C° 0 mm 5 mps 668 mmHg 32%
09:00 +26°C° 0 mm 6 mps 669 mmHg 23%
10:00 +26°C° 0 mm 7 mps 669 mmHg 21%
11:00 +27°C° 0 mm 8 mps 669 mmHg 19%
12:00 +28°C° 0 mm 8 mps 669 mmHg 18%
13:00 +28°C° 0 mm 9 mps 668 mmHg 18%
14:00 +28°C° 0 mm 9 mps 668 mmHg 19%
15:00 +28°C° 0 mm 10 mps 668 mmHg 20%
16:00 +26°C° 0 mm 9 mps 668 mmHg 29%
17:00 +23°C° 0 mm 9 mps 668 mmHg 38%
18:00 +21°C° 0 mm 9 mps 668 mmHg 47%
19:00 +17°C° 0 mm 6 mps 668 mmHg 55%
20:00 +15°C° 0 mm 4 mps 668 mmHg 64%
21:00 +14°C° 0 mm 2 mps 668 mmHg 72%
22:00 +14°C° 0 mm 2 mps 668 mmHg 74%
23:00 +13°C° 0 mm 2 mps 668 mmHg 76%

Mañana, 1 Agosto, Domingo

Tiempo Temperatura Precipitaciones Viento Presión Humedad
00:00 +12°C° 0 mm 3 mps 668 mmHg 78%
01:00 +11°C° 0 mm 3 mps 668 mmHg 80%
02:00 +11°C° 0 mm 3 mps 668 mmHg 82%
03:00 +10°C° 0 mm 3 mps 668 mmHg 85%
04:00 +12°C° 0 mm 2 mps 668 mmHg 80%
05:00 +12°C° 0 mm 2 mps 668 mmHg 76%
06:00 +12°C° 0 mm 2 mps 668 mmHg 72%
07:00 +14°C° 0 mm 2 mps 669 mmHg 59%
08:00 +17°C° 0 mm 2 mps 669 mmHg 46%
09:00 +19°C° 0 mm 2 mps 670 mmHg 33%
10:00 +21°C° 0 mm 2 mps 670 mmHg 30%
11:00 +24°C° 0 mm 3 mps 670 mmHg 26%
12:00 +25°C° 0 mm 3 mps 670 mmHg 22%
13:00 +26°C° 0 mm 3 mps 670 mmHg 21%
14:00 +27°C° 0 mm 4 mps 670 mmHg 20%
15:00 +27°C° 0 mm 4 mps 670 mmHg 18%
16:00 +27°C° 0 mm 4 mps 669 mmHg 22%
17:00 +26°C° 0 mm 4 mps 669 mmHg 25%
18:00 +25°C° 0 mm 4 mps 669 mmHg 28%
19:00 +22°C° 0 mm 3 mps 669 mmHg 40%
20:00 +19°C° 0 mm 3 mps 669 mmHg 52%
21:00 +17°C° 0 mm 2 mps 669 mmHg 63%
22:00 +16°C° 0 mm 2 mps 669 mmHg 70%
23:00 +16°C° 0 mm 2 mps 669 mmHg 78%

Pasado mañana, 2 Agosto, Lunes

Tiempo Temperatura Precipitaciones Viento Presión Humedad
00:00 +15°C° 0 mm 1 mps 669 mmHg 85%
01:00 +15°C° 0 mm 1 mps 669 mmHg 86%
02:00 +15°C° 0 mm 1 mps 669 mmHg 88%
03:00 +15°C° 0 mm 2 mps 669 mmHg 89%
04:00 +15°C° 0 mm 1 mps 669 mmHg 89%
05:00 +15°C° 0 mm 1 mps 669 mmHg 89%
06:00 +15°C° 0 mm 1 mps 669 mmHg 89%
07:00 +17°C° 0 mm 2 mps 670 mmHg 79%
08:00 +19°C° 0 mm 3 mps 670 mmHg 69%
09:00 +21°C° 0 mm 4 mps 671 mmHg 58%
10:00 +22°C° 0 mm 4 mps 671 mmHg 52%
11:00 +25°C° 0 mm 5 mps 671 mmHg 45%
12:00 +26°C° 0 mm 5 mps 671 mmHg 39%
13:00 +26°C° 0.1 mm 5 mps 671 mmHg 41%
14:00 +25°C° 0.1 mm 5 mps 671 mmHg 43%
15:00 +25°C° 0.1 mm 5 mps 670 mmHg 46%
16:00 +23°C° 0.1 mm 5 mps 670 mmHg 49%
17:00 +22°C° 0.1 mm 4 mps 670 mmHg 53%
18:00 +21°C° 0.1 mm 4 mps 670 mmHg 57%
19:00 +20°C° 0.1 mm 3 mps 670 mmHg 65%
20:00 +19°C° 0.1 mm 2 mps 670 mmHg 72%
21:00 +17°C° 0.1 mm 2 mps 670 mmHg 80%
22:00 +18°C° 0 mm 1 mps 670 mmHg 84%
23:00 +16°C° 0 mm 1 mps 670 mmHg 89%

3 Agosto, Martes

Tiempo Temperatura Precipitaciones Viento Presión Humedad
00:00 +15°C° 0 mm 1 mps 670 mmHg 93%
01:00 +15°C° 0 mm 1 mps 670 mmHg 94%
02:00 +15°C° 0 mm 1 mps 670 mmHg 94%
03:00 +15°C° 0 mm 1 mps 670 mmHg 95%
04:00 +15°C° 0 mm 1 mps 670 mmHg 93%
05:00 +16°C° 0 mm 1 mps 670 mmHg 91%
06:00 +16°C° 0 mm 1 mps 670 mmHg 89%
07:00 +20°C° 0 mm 1 mps 671 mmHg 75%
08:00 +21°C° 0 mm 2 mps 671 mmHg 61%
09:00 +25°C° 0 mm 3 mps 672 mmHg 47%
10:00 +26°C° 0 mm 3 mps 672 mmHg 39%
11:00 +28°C° 0 mm 4 mps 672 mmHg 31%
12:00 +30°C° 0 mm 5 mps 672 mmHg 24%
13:00 +30°C° 0 mm 5 mps 672 mmHg 21%
14:00 +32°C° 0 mm 6 mps 672 mmHg 19%
15:00 +33°C° 0 mm 6 mps 672 mmHg 17%
16:00 +32°C° 0 mm 6 mps 671 mmHg 18%
17:00 +32°C° 0 mm 6 mps 671 mmHg 20%
18:00 +30°C° 0 mm 6 mps 671 mmHg 21%
19:00 +27°C° 0 mm 4 mps 671 mmHg 28%
20:00 +25°C° 0 mm 3 mps 671 mmHg 36%
21:00 +21°C° 0 mm 2 mps 671 mmHg 44%
22:00 +21°C° 0 mm 2 mps 671 mmHg 48%
23:00 +21°C° 0 mm 1 mps 671 mmHg 53%

4 Agosto, Miércoles

Tiempo Temperatura Precipitaciones Viento Presión Humedad
00:00 +21°C° 0 mm 1 mps 670 mmHg 57%
01:00 +20°C° 0 mm 1 mps 670 mmHg 60%
02:00 +19°C° 0 mm 1 mps 670 mmHg 63%
03:00 +17°C° 0 mm 0 mps 669 mmHg 65%
04:00 +18°C° 0 mm 0 mps 670 mmHg 62%
05:00 +20°C° 0 mm 1 mps 670 mmHg 59%
06:00 +21°C° 0 mm 1 mps 671 mmHg 55%
07:00 +23°C° 0 mm 1 mps 671 mmHg 49%
08:00 +24°C° 0 mm 1 mps 672 mmHg 43%
09:00 +25°C° 0 mm 1 mps 672 mmHg 37%
10:00 +27°C° 0 mm 2 mps 672 mmHg 33%
11:00 +29°C° 0 mm 4 mps 672 mmHg 28%
12:00 +32°C° 0 mm 5 mps 672 mmHg 24%
13:00 +33°C° 0 mm 5 mps 672 mmHg 22%
14:00 +34°C° 0 mm 6 mps 672 mmHg 20%
15:00 +34°C° 0 mm 6 mps 672 mmHg 18%
16:00 +34°C° 0 mm 6 mps 672 mmHg 20%
17:00 +33°C° 0 mm 6 mps 672 mmHg 22%
18:00 +32°C° 0 mm 6 mps 672 mmHg 24%
19:00 +28°C° 0 mm 4 mps 671 mmHg 36%
20:00 +25°C° 0 mm 3 mps 671 mmHg 48%
21:00 +21°C° 0 mm 2 mps 671 mmHg 60%
22:00 +21°C° 0 mm 2 mps 671 mmHg 67%
23:00 +21°C° 0 mm 1 mps 671 mmHg 73%

5 Agosto, Jueves

Tiempo Temperatura Precipitaciones Viento Presión Humedad
00:00 +20°C° 0 mm 1 mps 671 mmHg 80%
01:00 +20°C° 0 mm 1 mps 670 mmHg 83%
02:00 +19°C° 0 mm 1 mps 670 mmHg 85%
03:00 +19°C° 0 mm 1 mps 670 mmHg 88%
04:00 +19°C° 0 mm 1 mps 670 mmHg 87%
05:00 +19°C° 0 mm 1 mps 670 mmHg 87%
06:00 +19°C° 0 mm 1 mps 670 mmHg 87%
07:00 +21°C° 0 mm 2 mps 670 mmHg 69%
08:00 +25°C° 0 mm 3 mps 671 mmHg 52%
09:00 +28°C° 0 mm 4 mps 671 mmHg 34%
10:00 +29°C° 0 mm 5 mps 671 mmHg 29%
11:00 +32°C° 0 mm 6 mps 671 mmHg 23%
12:00 +34°C° 0 mm 7 mps 671 mmHg 17%
13:00 +34°C° 0 mm 7 mps 671 mmHg 17%
14:00 +35°C° 0 mm 6 mps 671 mmHg 17%
15:00 +35°C° 0 mm 6 mps 670 mmHg 16%
16:00 +35°C° 0 mm 6 mps 670 mmHg 18%
17:00 +34°C° 0 mm 6 mps 670 mmHg 21%
18:00 +33°C° 0 mm 6 mps 670 mmHg 23%
19:00 +30°C° 0 mm 5 mps 670 mmHg 29%
20:00 +27°C° 0 mm 3 mps 670 mmHg 36%
21:00 +25°C° 0 mm 2 mps 670 mmHg 42%
22:00 +24°C° 0 mm 2 mps 670 mmHg 44%
23:00 +23°C° 0 mm 1 mps 669 mmHg 46%
Mostrar más

Necesitamos Su Consentimiento

Meteoprog y nuestros Proveedores de Servicios pueden almacenar y acceder a sus datos personales como cookies, identificadores de dispositivo u otras tecnologías similares de su dispositivo y procesar dichos datos para personalizar contenido y anuncios, además de ofrecer funciones de redes sociales y analizar el tráfico.

  • Almacenar y/o acceder a información en su dispositivo

    Se puede almacenar o acceder a cookies, identificadores de dispositivo u otra información de su dispositivo para los fines anteriormente indicados.

  • Anuncios y contenido personalizados, medición de anuncios y contenido, percepciones del público, y desarrollo de productos

    Los anuncios y el contenido pueden personalizarse en base a su perfil. Se pueden añadir más datos para personalizar mejor los anuncios y contenidos. Se puede medir el rendimiento de los anuncios y contenidos. Se puede obtener la percepción sobre el público que ha visto los anuncios y contenidos. Dichos datos pueden usarse para desarrollar o mejorar la experiencia del usuario, sistemas y software.

Al hacer clic en ‘Estoy De Acuerdo’ usted permitirá el uso de las cookies, identificadores de dispositivo, balizas web u otras tecnologías similares indicadas. Su configuración puede cambiarse desde el navegador de su dispositivo.

Para ciertos fines, los intereses legítimos pueden ser considerados por encima del consentimiento. Puede leer más sobre ello en nuestra Política de Privacidad y Cookies.